| time (UTC) | temp F | wind direction | speed knots | gust knots | rain 1hr in | rain 24hr in | rain mn in | humidity % | barometer mb |
| 20260506221504 | 67 | 234 | 0.0 | 0.9 | 0.00 | 0.00 | 0.00 | 84 | 1007.5 |
| 20260506220015 | 68 | 234 | 0.0 | 0.9 | 0.00 | 0.00 | 0.00 | 83 | 1006.9 |
| 20260506214503 | 68 | 233 | 0.0 | 0.9 | 0.00 | 0.00 | 0.00 | 83 | 1006.8 |
| 20260506213004 | 68 | 226 | 0.0 | 0.9 | 0.00 | 0.00 | 0.00 | 83 | 1007.2 |
| 20260506213002 | 68 | 226 | 0.0 | 0.9 | 0.00 | 0.00 | 0.00 | 83 | 1006.6 |
| 20260506211507 | 67 | 233 | 0.0 | 1.7 | 0.00 | 0.00 | 0.00 | 85 | 1006.4 |
| 20260506211504 | 67 | 233 | 0.0 | 1.7 | 0.00 | 0.00 | 0.00 | 85 | 1007.0 |
| 20260506210009 | 66 | 237 | 0.0 | 1.7 | 0.00 | 0.00 | 0.00 | 85 | 1006.4 |
| 20260506204504 | 68 | 235 | 0.0 | 1.7 | 0.00 | 0.00 | 0.00 | 84 | 1006.5 |
| 20260506203005 | 67 | 240 | 0.0 | 1.7 | 0.00 | 0.00 | 0.00 | 85 | 1007.1 |
| 20260506201506 | 67 | 236 | 0.9 | 4.3 | 0.00 | 0.00 | 0.00 | 86 | 1007.0 |
| 20260506201503 | 67 | 236 | 0.9 | 4.3 | 0.00 | 0.00 | 0.00 | 86 | 1006.4 |
| 20260506200006 | 66 | 240 | 0.0 | 3.5 | 0.00 | 0.00 | 0.00 | 89 | 1007.0 |
| 20260506194503 | 65 | 236 | 0.0 | 3.5 | 0.00 | 0.00 | 0.00 | 90 | 1006.5 |
| 20260506193004 | 65 | 237 | 0.9 | 3.5 | 0.00 | 0.00 | 0.00 | 92 | 1007.3 |
| 20260506193002 | 65 | 238 | 0.0 | 3.5 | 0.00 | 0.00 | 0.00 | 92 | 1006.7 |
| 20260506191505 | 64 | 237 | 0.0 | 2.6 | 0.00 | 0.00 | 0.00 | 95 | 1007.4 |
| 20260506191503 | 64 | 237 | 0.0 | 2.6 | 0.00 | 0.00 | 0.00 | 95 | 1006.7 |
| 20260506190006 | 62 | 229 | 0.0 | 1.7 | 0.00 | 0.00 | 0.00 | 96 | 1006.8 |
| 20260506184503 | 61 | 234 | 0.0 | 2.6 | 0.00 | 0.00 | 0.00 | 96 | 1007.6 |
| 20260506183005 | 60 | 235 | 0.9 | 1.7 | 0.00 | 0.00 | 0.00 | 96 | 1007.7 |
| 20260506183002 | 60 | 235 | 0.0 | 1.7 | 0.00 | 0.00 | 0.00 | 96 | 1007.1 |
| 20260506181504 | 59 | 229 | 0.9 | 2.6 | 0.00 | 0.00 | 0.00 | 96 | 1007.8 |
| 20260506180007 | 59 | 235 | 0.9 | 3.5 | 0.00 | 0.00 | 0.00 | 96 | 1008.0 |
| 20260506180005 | 59 | 235 | 0.9 | 3.5 | 0.00 | 0.00 | 0.00 | 96 | 1007.4 |
| 20260506174504 | 59 | 236 | 0.9 | 2.6 | 0.00 | 0.00 | 0.00 | 96 | 1007.3 |
| 20260506173003 | 59 | 231 | 0.9 | 3.5 | 0.00 | 0.00 | 0.00 | 96 | 1007.3 |
| 20260506171507 | 59 | 232 | 0.0 | 4.3 | 0.00 | 0.00 | 0.00 | 96 | 1007.3 |
| 20260506171504 | 59 | 236 | 0.9 | 4.3 | 0.00 | 0.00 | 0.00 | 96 | 1008.0 |
| 20260506170007 | 59 | 233 | 0.9 | 2.6 | 0.00 | 0.00 | 0.00 | 96 | 1007.8 |
| 20260506170005 | 59 | 233 | 0.9 | 2.6 | 0.00 | 0.00 | 0.00 | 96 | 1007.1 |
| 20260506164504 | 59 | 234 | 0.9 | 3.5 | 0.00 | 0.00 | 0.00 | 96 | 1008.0 |
| 20260506163003 | 59 | 229 | 0.0 | 4.3 | 0.00 | 0.00 | 0.00 | 96 | 1007.5 |
| 20260506161504 | 59 | 233 | 0.0 | 4.3 | 0.00 | 0.00 | 0.00 | 96 | 1008.2 |
| 20260506160010 | 59 | 232 | 0.0 | 3.5 | 0.00 | 0.00 | 0.00 | 96 | 1007.3 |
| 20260506154505 | 59 | 232 | 0.0 | 2.6 | 0.00 | 0.00 | 0.00 | 95 | 1008.6 |
| 20260506154502 | 59 | 232 | 0.0 | 2.6 | 0.00 | 0.00 | 0.00 | 95 | 1007.9 |
| 20260506153002 | 59 | 226 | 0.0 | 1.7 | 0.00 | 0.00 | 0.00 | 95 | 1008.2 |
| 20260506151503 | 59 | 220 | 0.0 | 1.7 | 0.00 | 0.00 | 0.00 | 95 | 1008.4 |
| 20260506150005 | 59 | 233 | 0.0 | 1.7 | 0.00 | 0.00 | 0.00 | 94 | 1008.3 |
| 20260506144503 | 59 | 229 | 0.0 | 2.6 | 0.00 | 0.00 | 0.00 | 94 | 1008.9 |
| 20260506143001 | 60 | 226 | 0.0 | 1.7 | 0.00 | 0.00 | 0.00 | 93 | 1008.3 |
| 20260506141503 | 60 | 229 | 0.0 | 1.7 | 0.00 | 0.00 | 0.00 | 92 | 1009.0 |
| 20260506140006 | 60 | 226 | 0.0 | 1.7 | 0.00 | 0.00 | 0.00 | 91 | 1008.2 |
| 20260506134505 | 61 | 230 | 0.0 | 1.7 | 0.00 | 0.00 | 0.00 | 88 | 1009.0 |
| 20260506134502 | 61 | 230 | 0.0 | 1.7 | 0.00 | 0.00 | 0.00 | 88 | 1008.3 |
| 20260506133004 | 61 | 231 | 0.0 | 1.7 | 0.00 | 0.00 | 0.00 | 87 | 1008.9 |
| 20260506133002 | 61 | 231 | 0.0 | 1.7 | 0.00 | 0.00 | 0.00 | 87 | 1008.2 |
| 20260506131503 | 61 | 231 | 0.0 | 1.7 | 0.00 | 0.00 | 0.00 | 86 | 1009.0 |
| 20260506130006 | 62 | 231 | 0.0 | 2.6 | 0.00 | 0.00 | 0.00 | 85 | 1009.1 |
| 20260506124504 | 62 | 231 | 0.0 | 1.7 | 0.00 | 0.00 | 0.00 | 84 | 1009.1 |
| 20260506123005 | 63 | 232 | 0.9 | 3.5 | 0.00 | 0.00 | 0.00 | 82 | 1009.2 |
| 20260506123003 | 63 | 232 | 0.0 | 3.5 | 0.00 | 0.00 | 0.00 | 82 | 1008.5 |
| 20260506121503 | 63 | 235 | 1.7 | 4.3 | 0.00 | 0.00 | 0.00 | 82 | 1008.2 |
| 20260506120006 | 62 | 232 | 0.9 | 2.6 | 0.00 | 0.00 | 0.00 | 83 | 1008.9 |
| 20260506114504 | 62 | 231 | 0.9 | 3.5 | 0.00 | 0.00 | 0.00 | 82 | 1007.9 |
| 20260506113004 | 62 | 238 | 0.9 | 3.5 | 0.00 | 0.00 | 0.00 | 83 | 1007.8 |
| 20260506111506 | 62 | 228 | 0.0 | 2.6 | 0.00 | 0.00 | 0.00 | 83 | 1007.7 |
| 20260506110007 | 62 | 229 | 0.9 | 3.5 | 0.00 | 0.00 | 0.00 | 83 | 1008.3 |
| 20260506110005 | 62 | 229 | 0.9 | 3.5 | 0.00 | 0.00 | 0.00 | 83 | 1007.6 |
| 20260506104504 | 62 | 229 | 0.9 | 4.3 | 0.00 | 0.00 | 0.00 | 83 | 1008.3 |
| 20260506104502 | 62 | 229 | 0.9 | 4.3 | 0.00 | 0.00 | 0.00 | 83 | 1007.6 |
| 20260506103004 | 62 | 229 | 0.9 | 4.3 | 0.00 | 0.00 | 0.00 | 83 | 1008.1 |
| 20260506101504 | 62 | 235 | 1.7 | 4.3 | 0.00 | 0.00 | 0.00 | 83 | 1008.1 |
| 20260506100006 | 62 | 229 | 0.9 | 2.6 | 0.00 | 0.00 | 0.00 | 82 | 1008.1 |
| 20260506094504 | 62 | 240 | 0.9 | 3.5 | 0.00 | 0.00 | 0.00 | 82 | 1008.0 |
| 20260506093004 | 63 | 227 | 0.9 | 3.5 | 0.00 | 0.00 | 0.00 | 81 | 1007.4 |
| 20260506091502 | 63 | 232 | 0.0 | 3.5 | 0.00 | 0.00 | 0.00 | 80 | 1007.7 |
| 20260506090005 | 63 | 233 | 0.0 | 2.6 | 0.00 | 0.00 | 0.00 | 80 | 1007.7 |
| 20260506084503 | 64 | 233 | 0.0 | 1.7 | 0.00 | 0.00 | 0.00 | 79 | 1007.8 |
| 20260506083004 | 64 | 232 | 0.0 | 2.6 | 0.00 | 0.00 | 0.00 | 78 | 1008.5 |
| 20260506083002 | 64 | 232 | 0.0 | 2.6 | 0.00 | 0.00 | 0.00 | 78 | 1007.8 |
| 20260506081505 | 64 | 228 | 0.0 | 2.6 | 0.00 | 0.00 | 0.00 | 78 | 1008.5 |
| 20260506081503 | 64 | 228 | 0.0 | 2.6 | 0.00 | 0.00 | 0.00 | 78 | 1007.8 |
| 20260506073004 | 65 | 243 | 0.0 | 1.7 | 0.00 | 0.00 | 0.00 | 76 | 1008.6 |
| 20260506071503 | 65 | 231 | 0.0 | 1.7 | 0.00 | 0.00 | 0.00 | 75 | 1008.8 |
| 20260506061506 | 65 | 226 | 0.0 | 1.7 | 0.00 | 0.00 | 0.00 | 72 | 1008.7 |
| 20260506061503 | 65 | 226 | 0.0 | 1.7 | 0.00 | 0.00 | 0.00 | 72 | 1009.3 |
| 20260506044504 | 65 | 229 | 0.0 | 0.9 | 0.00 | 0.00 | 0.00 | 70 | 1009.2 |
| 20260506043004 | 65 | 228 | 0.0 | 0.9 | 0.00 | 0.00 | 0.00 | 70 | 1009.9 |
| 20260506041504 | 64 | 229 | 0.0 | 0.9 | 0.00 | 0.00 | 0.00 | 70 | 1009.3 |
| 20260506040019 | 64 | 232 | 0.0 | 1.7 | 0.00 | 0.00 | 0.00 | 70 | 1009.3 |
| 20260506040008 | 64 | 232 | 0.0 | 1.7 | 0.00 | 0.00 | 0.00 | 70 | 1009.9 |
| 20260506034504 | 64 | 229 | 0.0 | 0.9 | 0.00 | 0.00 | 0.00 | 71 | 1009.3 |
| 20260506033005 | 64 | 228 | 0.0 | 0.9 | 0.00 | 0.00 | 0.00 | 70 | 1009.8 |
| 20260506031508 | 64 | 230 | 0.0 | 0.9 | 0.00 | 0.00 | 0.00 | 70 | 1009.1 |
| 20260506031506 | 64 | 230 | 0.0 | 0.9 | 0.00 | 0.00 | 0.00 | 70 | 1009.7 |
| 20260506030008 | 65 | 226 | 0.0 | 1.7 | 0.00 | 0.00 | 0.00 | 70 | 1009.8 |
| 20260506030006 | 65 | 226 | 0.0 | 1.7 | 0.00 | 0.00 | 0.00 | 70 | 1009.2 |
| 20260506024510 | 65 | 226 | 0.0 | 1.7 | 0.00 | 0.00 | 0.00 | 69 | 1009.1 |
| 20260506024506 | 65 | 226 | 0.0 | 1.7 | 0.00 | 0.00 | 0.00 | 69 | 1009.8 |
| 20260506023005 | 66 | 226 | 0.0 | 1.7 | 0.00 | 0.00 | 0.00 | 68 | 1009.8 |
| 20260506023003 | 66 | 226 | 0.0 | 1.7 | 0.00 | 0.00 | 0.00 | 68 | 1009.1 |
| 20260506021505 | 66 | 229 | 0.0 | 0.9 | 0.00 | 0.00 | 0.00 | 68 | 1009.9 |
| 20260506021503 | 66 | 229 | 0.0 | 0.9 | 0.00 | 0.00 | 0.00 | 68 | 1009.3 |
| 20260506020007 | 66 | 230 | 0.0 | 2.6 | 0.00 | 0.00 | 0.00 | 67 | 1009.8 |
| 20260506020005 | 66 | 230 | 0.0 | 2.6 | 0.00 | 0.00 | 0.00 | 67 | 1009.2 |
| 20260506014505 | 67 | 227 | 0.0 | 0.9 | 0.00 | 0.00 | 0.00 | 66 | 1009.6 |
| 20260506014503 | 67 | 227 | 0.0 | 0.9 | 0.00 | 0.00 | 0.00 | 66 | 1009.0 |
| 20260506013004 | 67 | 226 | 0.0 | 1.7 | 0.00 | 0.00 | 0.00 | 65 | 1009.5 |
| 20260506011503 | 68 | 226 | 0.0 | 1.7 | 0.00 | 0.00 | 0.00 | 63 | 1008.7 |
| 20260506010011 | 68 | 231 | 0.0 | 0.9 | 0.00 | 0.00 | 0.00 | 62 | 1008.5 |
| 20260506010007 | 68 | 231 | 0.0 | 0.9 | 0.00 | 0.00 | 0.00 | 62 | 1009.1 |
| 20260506004510 | 69 | 226 | 0.0 | 1.7 | 0.00 | 0.00 | 0.00 | 61 | 1008.3 |
| 20260506004504 | 69 | 226 | 0.0 | 1.7 | 0.00 | 0.00 | 0.00 | 61 | 1009.0 |
| 20260506003008 | 69 | 226 | 0.0 | 0.9 | 0.00 | 0.00 | 0.00 | 60 | 1008.2 |
| 20260506003005 | 69 | 226 | 0.0 | 0.9 | 0.00 | 0.00 | 0.00 | 60 | 1008.9 |
| 20260506001504 | 70 | 227 | 0.0 | 0.9 | 0.00 | 0.00 | 0.00 | 57 | 1008.8 |
| 20260506000006 | 71 | 227 | 0.0 | 1.7 | 0.00 | 0.00 | 0.00 | 55 | 1008.6 |
| 20260506000004 | 71 | 227 | 0.0 | 1.7 | 0.00 | 0.00 | 0.00 | 55 | 1008.0 |
| 20260505234504 | 72 | 241 | 0.0 | 2.6 | 0.00 | 0.00 | 0.00 | 54 | 1007.9 |
| 20260505233005 | 73 | 227 | 0.0 | 0.9 | 0.00 | 0.00 | 0.00 | 52 | 1008.2 |
| 20260505233002 | 73 | 227 | 0.0 | 0.9 | 0.00 | 0.00 | 0.00 | 52 | 1007.6 |
| 20260505231501 | 74 | 226 | 0.0 | 3.5 | 0.00 | 0.00 | 0.00 | 51 | 1007.7 |
| 20260505230006 | 75 | 229 | 0.0 | 0.9 | 0.00 | 0.00 | 0.00 | 51 | 1008.3 |
| 20260505224504 | 76 | 238 | 0.0 | 1.7 | 0.00 | 0.00 | 0.00 | 50 | 1008.3 |
| 20260505223003 | 77 | 231 | 0.0 | 1.7 | 0.00 | 0.00 | 0.00 | 48 | 1007.6 |